,,PA_Meas_PMT16A,,PR_Meas_QMR101_102,,RH_Meas_QMH101,,SR_Meas_QMS101,,TA_Meas_QMH101,,GenWind,,GenWind,
time,status,PA,status,PR,status,RH,status,SR,status,TA,status,DirAvg,status,SpdAvg,
2014-04-05, 00:00:05,VALID,918.889,VALID,0,VALID,92.3196,VALID,0,VALID,20.2879,VALID,359,VALID,0,
2014-04-05, 00:01:04,VALID,918.879,VALID,0,VALID,92.3119,VALID,0,VALID,20.3089,VALID,359,VALID,0,
2014-04-05, 00:02:04,VALID,918.85,VALID,0,VALID,92.3653,VALID,0,VALID,20.2879,VALID,359,VALID,0,
2014-04-05, 00:03:04,VALID,918.856,VALID,0,VALID,92.3958,VALID,0,VALID,20.2894,VALID,359,VALID,0.403125,
2014-04-05, 00:04:04,VALID,918.848,VALID,0,VALID,92.4187,VALID,0,VALID,20.2699,VALID,359,VALID,0.428516,
2014-04-05, 00:05:04,VALID,918.833,VALID,0,VALID,92.4949,VALID,0,VALID,20.2504,VALID,359,VALID,0.477344,
2014-04-05, 00:06:04,VALID,918.832,VALID,0,VALID,92.5711,VALID,0,VALID,20.2519,VALID,359,VALID,0.664063,
2014-04-05, 00:07:04,VALID,918.835,VALID,0,VALID,92.6931,VALID,0,VALID,20.2114,VALID,359,VALID,0.610937,
2014-04-05, 00:08:04,VALID,918.83,VALID,0,VALID,92.7541,VALID,0,VALID,20.1708,VALID,359,VALID,0.713281,
2014-04-05, 00:09:04,VALID,918.839,VALID,0,VALID,92.9371,VALID,0,VALID,20.1724,VALID,359,VALID,0.784766,
2014-04-05, 00:10:04,VALID,918.806,VALID,0,VALID,93.0667,VALID,0,VALID,20.1529,VALID,359,VALID,0.669531,
2014-04-05, 00:11:04,VALID,918.817,VALID,0,VALID,93.1963,VALID,0,VALID,20.1334,VALID,359,VALID,0.651953,
2014-04-05, 00:12:04,VALID,918.798,VALID,0,VALID,93.3945,VALID,0,VALID,20.1139,VALID,359,VALID,0.639453,
2014-04-05, 00:13:04,VALID,918.817,VALID,0,VALID,93.5546,VALID,0,VALID,20.0944,VALID,359,VALID,0.728906,
2014-04-05, 00:14:04,VALID,918.785,VALID,0,VALID,93.7604,VALID,0,VALID,20.0733,VALID,359,VALID,0.655469,
2014-04-05, 00:15:04,VALID,918.771,VALID,0,VALID,93.9738,VALID,0,VALID,20.0944,VALID,360,VALID,0.615625,
2014-04-05, 00:16:04,VALID,918.709,VALID,0,VALID,94.0882,VALID,0,VALID,20.0749,VALID,360,VALID,0.627734,
2014-04-05, 00:17:04,VALID,918.717,VALID,0,VALID,94.1949,VALID,0,VALID,20.0553,VALID,9,VALID,0.739453,
2014-04-05, 00:18:04,VALID,918.689,VALID,0,VALID,94.2559,VALID,0,VALID,20.0553,VALID,9,VALID,0.714063,
2014-04-05, 00:19:04,VALID,918.691,VALID,0,VALID,94.3474,VALID,0,VALID,20.0358,VALID,9,VALID,0.694922,
2014-04-05, 00:20:04,VALID,918.671,VALID,0,VALID,94.416,VALID,0,VALID,20.0148,VALID,9,VALID,0.633203,
2014-04-05, 00:21:04,VALID,918.671,VALID,0,VALID,94.5075,VALID,0,VALID,20.0358,VALID,9,VALID,0.618359,
2014-04-05, 00:22:04,VALID,918.651,VALID,0,VALID,94.5761,VALID,0,VALID,20.0163,VALID,9,VALID,0.682422,
2014-04-05, 00:23:04,VALID,918.605,VALID,0,VALID,94.6447,VALID,0,VALID,20.0358,VALID,9,VALID,0.89375,
2014-04-05, 00:24:04,VALID,918.612,VALID,0,VALID,94.6676,VALID,0,VALID,19.9953,VALID,9,VALID,0.654688,
2014-04-05, 00:25:04,VALID,918.582,VALID,0,VALID,94.6905,VALID,0,VALID,19.9953,VALID,9,VALID,0.646875,
2014-04-05, 00:26:04,VALID,918.572,VALID,0,VALID,94.6447,VALID,0,VALID,20.0163,VALID,9,VALID,0.344531,
2014-04-05, 00:27:04,VALID,918.558,VALID,0,VALID,94.6371,VALID,0,VALID,19.9953,VALID,9,VALID,0.740625,
2014-04-05, 00:28:04,VALID,918.535,VALID,0,VALID,94.6218,VALID,0,VALID,20.0163,VALID,9,VALID,0.629297,
2014-04-05, 00:29:04,VALID,918.52,VALID,0,VALID,94.6142,VALID,0,VALID,20.0163,VALID,9,VALID,0.774609,
2014-04-05, 00:30:04,VALID,918.515,VALID,0,VALID,94.6447,VALID,0,VALID,19.9953,VALID,109,VALID,0.969141,
2014-04-05, 00:31:04,VALID,918.504,VALID,0,VALID,94.6447,VALID,0,VALID,20.0358,VALID,109,VALID,0.880469,
2014-04-05, 00:32:04,VALID,918.499,VALID,0,VALID,94.6447,VALID,0,VALID,20.0343,VALID,108,VALID,0.735937,
2014-04-05, 00:33:04,VALID,918.473,VALID,0,VALID,94.599,VALID,0,VALID,20.0553,VALID,108,VALID,0.630078,
2014-04-05, 00:34:04,VALID,918.484,VALID,0,VALID,94.6066,VALID,0,VALID,20.0343,VALID,108,VALID,0.435156,
2014-04-05, 00:35:04,VALID,918.451,VALID,0,VALID,94.5609,VALID,0,VALID,20.0553,VALID,109,VALID,0.416797,
2014-04-05, 00:36:04,VALID,918.416,VALID,0,VALID,94.4999,VALID,0,VALID,20.0553,VALID,109,VALID,0.576563,
2014-04-05, 00:37:04,VALID,918.404,VALID,0,VALID,94.4999,VALID,0,VALID,20.0343,VALID,109,VALID,0.508203,
2014-04-05, 00:38:04,VALID,918.378,VALID,0,VALID,94.4846,VALID,0,VALID,20.0358,VALID,109,VALID,0.535156,
2014-04-05, 00:39:04,VALID,918.344,VALID,0,VALID,94.4846,VALID,0,VALID,20.0358,VALID,108,VALID,0.451562,
2014-04-05, 00:40:04,VALID,918.347,VALID,0,VALID,94.5075,VALID,0,VALID,20.0358,VALID,108,VALID,0.392578,
2014-04-05, 00:41:04,VALID,918.33,VALID,0,VALID,94.5227,VALID,0,VALID,20.0358,VALID,108,VALID,0.245312,
2014-04-05, 00:42:04,VALID,918.288,VALID,0,VALID,94.5227,VALID,0,VALID,20.0553,VALID,109,VALID,0.101563,
2014-04-05, 00:43:04,VALID,918.258,VALID,0,VALID,94.5532,VALID,0,VALID,20.0538,VALID,108,VALID,0.407422,
2014-04-05, 00:44:04,VALID,918.237,VALID,0,VALID,94.5075,VALID,0,VALID,20.0764,VALID,108,VALID,0.428516,
2014-04-05, 00:45:04,VALID,918.205,VALID,0,VALID,94.4617,VALID,0,VALID,20.0358,VALID,109,VALID,0.358984,
2014-04-05, 00:46:04,VALID,918.195,VALID,0,VALID,94.4236,VALID,0,VALID,20.0358,VALID,108,VALID,0.424219,
2014-04-05, 00:47:04,VALID,918.144,VALID,0,VALID,94.4084,VALID,0,VALID,20.0163,VALID,109,VALID,0.498437,
2014-04-05, 00:48:04,VALID,918.146,VALID,0,VALID,94.416,VALID,0,VALID,20.0569,VALID,108,VALID,0.408594,
2014-04-05, 00:49:04,VALID,918.111,VALID,0,VALID,94.4084,VALID,0,VALID,20.0163,VALID,109,VALID,0.580469,
2014-04-05, 00:50:04,VALID,918.085,VALID,0,VALID,94.416,VALID,0,VALID,20.0163,VALID,108,VALID,0.641797,
2014-04-05, 00:51:04,VALID,918.089,VALID,0,VALID,94.4236,VALID,0,VALID,20.0358,VALID,109,VALID,0.705859,
2014-04-05, 00:52:04,VALID,918.123,VALID,0,VALID,94.4389,VALID,0,VALID,20.0163,VALID,108,VALID,0.66875,
2014-04-05, 00:53:04,VALID,918.063,VALID,0,VALID,94.4389,VALID,0,VALID,19.9968,VALID,108,VALID,0.784766,
2014-04-05, 00:54:04,VALID,918.04,VALID,0,VALID,94.4694,VALID,0,VALID,19.9968,VALID,108,VALID,0.794531,
2014-04-05, 00:55:04,VALID,918.021,VALID,0,VALID,94.4922,VALID,0,VALID,19.9968,VALID,109,VALID,0.584375,
2014-04-05, 00:56:04,VALID,918.023,VALID,0,VALID,94.5151,VALID,0,VALID,19.9968,VALID,108,VALID,0.377344,
2014-04-05, 00:57:04,VALID,918.026,VALID,0,VALID,94.5227,VALID,0,VALID,19.9563,VALID,108,VALID,0.222266,
2014-04-05, 00:58:04,VALID,918.032,VALID,0,VALID,94.5609,VALID,0,VALID,19.9773,VALID,108,VALID,0.110156,
2014-04-05, 00:59:04,VALID,918.02,VALID,0,VALID,94.5913,VALID,0,VALID,19.9758,VALID,108,VALID,0.391797,
2014-04-05, 01:00:04,VALID,917.994,VALID,0,VALID,94.5685,VALID,0,VALID,19.9968,VALID,108,VALID,0.270312,
2014-04-05, 01:01:04,VALID,917.983,VALID,0,VALID,94.5609,VALID,0,VALID,19.9773,VALID,108,VALID,0.309766,
2014-04-05, 01:02:04,VALID,917.979,VALID,0,VALID,94.538,VALID,0,VALID,19.9578,VALID,108,VALID,0.429297,
2014-04-05, 01:03:04,VALID,917.952,VALID,0,VALID,94.5532,VALID,0,VALID,19.9368,VALID,109,VALID,0.378906,
2014-04-05, 01:04:04,VALID,917.949,VALID,0,VALID,94.5456,VALID,0,VALID,19.9383,VALID,109,VALID,0.112109,
2014-04-05, 01:05:04,VALID,917.96,VALID,0,VALID,94.5761,VALID,0,VALID,19.9188,VALID,109,VALID,0,
2014-04-05, 01:06:04,VALID,917.949,VALID,0,VALID,94.5913,VALID,0,VALID,19.9188,VALID,108,VALID,0,
2014-04-05, 01:07:04,VALID,917.937,VALID,0,VALID,94.6295,VALID,0,VALID,19.9188,VALID,109,VALID,0,
2014-04-05, 01:08:04,VALID,917.966,VALID,0,VALID,94.66,VALID,0,VALID,19.9188,VALID,109,VALID,0,
2014-04-05, 01:09:04,VALID,917.956,VALID,0,VALID,94.6828,VALID,0,VALID,19.9383,VALID,109,VALID,0,
2014-04-05, 01:10:04,VALID,917.975,VALID,0,VALID,94.6905,VALID,0,VALID,19.9188,VALID,108,VALID,0.105859,
2014-04-05, 01:11:04,VALID,917.989,VALID,0,VALID,94.7133,VALID,0,VALID,19.9578,VALID,109,VALID,0.244141,
2014-04-05, 01:12:04,VALID,917.942,VALID,0,VALID,94.7057,VALID,0,VALID,19.9188,VALID,109,VALID,0.394141,
2014-04-05, 01:13:04,VALID,917.942,VALID,0,VALID,94.7362,VALID,0,VALID,19.9188,VALID,109,VALID,0.951172,
2014-04-05, 01:14:04,VALID,917.962,VALID,0,VALID,94.7743,VALID,0,VALID,19.9188,VALID,108,VALID,0.829687,
2014-04-05, 01:15:04,VALID,917.928,VALID,0,VALID,94.82,VALID,0,VALID,19.8993,VALID,109,VALID,0.789063,
2014-04-05, 01:16:04,VALID,917.903,VALID,0,VALID,94.8887,VALID,0,VALID,19.8993,VALID,109,VALID,0.646094,
2014-04-05, 01:17:04,VALID,917.908,VALID,0,VALID,94.942,VALID,0,VALID,19.8798,VALID,109,VALID,0.826953,
2014-04-05, 01:18:04,VALID,917.917,VALID,0,VALID,94.9801,VALID,0,VALID,19.8798,VALID,108,VALID,0.866016,
2014-04-05, 01:19:04,VALID,917.93,VALID,0,VALID,95.0259,VALID,0,VALID,19.8603,VALID,109,VALID,0.871484,
2014-04-05, 01:20:04,VALID,917.91,VALID,0,VALID,95.0259,VALID,0,VALID,19.8408,VALID,108,VALID,0.941797,
2014-04-05, 01:21:04,VALID,917.929,VALID,0,VALID,95.0106,VALID,0,VALID,19.8408,VALID,108,VALID,1.00234,
2014-04-05, 01:22:04,VALID,917.929,VALID,0,VALID,95.0335,VALID,0,VALID,19.8213,VALID,108,VALID,0.821094,
2014-04-05, 01:23:04,VALID,917.903,VALID,0,VALID,95.0335,VALID,0,VALID,19.8003,VALID,109,VALID,0.529688,
2014-04-05, 01:24:04,VALID,917.911,VALID,0,VALID,95.0335,VALID,0,VALID,19.8213,VALID,108,VALID,0.764063,
2014-04-05, 01:25:04,VALID,917.868,VALID,0,VALID,95.0335,VALID,0,VALID,19.8213,VALID,109,VALID,0.663672,
2014-04-05, 01:26:04,VALID,917.887,VALID,0,VALID,95.0106,VALID,0,VALID,19.8408,VALID,109,VALID,0.637891,
2014-04-05, 01:27:04,VALID,917.859,VALID,0,VALID,95.0183,VALID,0,VALID,19.8603,VALID,108,VALID,0.378125,
2014-04-05, 01:28:04,VALID,917.845,VALID,0,VALID,95.0259,VALID,0,VALID,19.8798,VALID,108,VALID,0.903125,
2014-04-05, 01:29:04,VALID,917.855,VALID,0,VALID,95.0335,VALID,0,VALID,19.8798,VALID,109,VALID,0.629297,
2014-04-05, 01:30:04,VALID,917.842,VALID,0,VALID,95.003,VALID,0,VALID,19.8798,VALID,109,VALID,0.445703,
2014-04-05, 01:31:04,VALID,917.88,VALID,0,VALID,94.9725,VALID,0,VALID,19.8393,VALID,108,VALID,0.495703,
2014-04-05, 01:32:04,VALID,917.856,VALID,0,VALID,94.9573,VALID,0,VALID,19.8408,VALID,108,VALID,0.666016,
2014-04-05, 01:33:04,VALID,917.841,VALID,0,VALID,94.9573,VALID,0,VALID,19.8213,VALID,109,VALID,0.639844,
2014-04-05, 01:34:04,VALID,917.864,VALID,0,VALID,94.9878,VALID,0,VALID,19.8213,VALID,108,VALID,0.748438,
2014-04-05, 01:35:04,VALID,917.849,VALID,0,VALID,95.0488,VALID,0,VALID,19.8408,VALID,109,VALID,0.700391,
2014-04-05, 01:36:04,VALID,917.842,VALID,0,VALID,95.064,VALID,0,VALID,19.8213,VALID,109,VALID,0.484766,
2014-04-05, 01:37:04,VALID,917.842,VALID,0,VALID,95.1097,VALID,0,VALID,19.8603,VALID,108,VALID,0.56875,
2014-04-05, 01:38:04,VALID,917.817,VALID,0,VALID,95.1326,VALID,0,VALID,19.8198,VALID,109,VALID,0.641406,
2014-04-05, 01:39:04,VALID,917.817,VALID,0,VALID,95.1402,VALID,0,VALID,19.8603,VALID,108,VALID,0.576953,
2014-04-05, 01:40:04,VALID,917.821,VALID,0,VALID,95.1479,VALID,0,VALID,19.8588,VALID,109,VALID,0.317969,
2014-04-05, 01:41:04,VALID,917.812,VALID,0,VALID,95.1783,VALID,0,VALID,19.8798,VALID,109,VALID,0.294531,
2014-04-05, 01:42:04,VALID,917.814,VALID,0,VALID,95.186,VALID,0,VALID,19.8798,VALID,109,VALID,0.0976563,
2014-04-05, 01:43:04,VALID,917.797,VALID,0,VALID,95.1707,VALID,0,VALID,19.8603,VALID,108,VALID,0.410547,
2014-04-05, 01:44:04,VALID,917.814,VALID,0,VALID,95.1783,VALID,0,VALID,19.8588,VALID,109,VALID,0.262891,
2014-04-05, 01:45:04,VALID,917.801,VALID,0,VALID,95.1936,VALID,0,VALID,19.8993,VALID,109,VALID,0.263281,
2014-04-05, 01:46:04,VALID,917.773,VALID,0,VALID,95.2012,VALID,0,VALID,19.8783,VALID,108,VALID,0,
2014-04-05, 01:47:04,VALID,917.805,VALID,0,VALID,95.2088,VALID,0,VALID,19.8978,VALID,109,VALID,0.0105469,
2014-04-05, 01:48:04,VALID,917.779,VALID,0,VALID,95.2088,VALID,0,VALID,19.9188,VALID,108,VALID,0,
2014-04-05, 01:49:04,VALID,917.763,VALID,0,VALID,95.2012,VALID,0,VALID,19.9188,VALID,108,VALID,0,
2014-04-05, 01:50:04,VALID,917.704,VALID,0,VALID,95.2088,VALID,0,VALID,19.9173,VALID,109,VALID,0,
2014-04-05, 01:51:04,VALID,917.69,VALID,0,VALID,95.2317,VALID,0,VALID,19.9563,VALID,109,VALID,0,
2014-04-05, 01:52:04,VALID,917.696,VALID,0,VALID,95.2088,VALID,0,VALID,19.9563,VALID,109,VALID,0,
2014-04-05, 01:53:04,VALID,917.683,VALID,0,VALID,95.1936,VALID,0,VALID,19.9773,VALID,109,VALID,0,
2014-04-05, 01:54:04,VALID,917.711,VALID,0,VALID,95.1936,VALID,0,VALID,19.9773,VALID,108,VALID,0,
2014-04-05, 01:55:04,VALID,917.679,VALID,0,VALID,95.1631,VALID,0,VALID,19.9563,VALID,108,VALID,0,
2014-04-05, 01:56:04,VALID,917.676,VALID,0,VALID,95.1783,VALID,0,VALID,19.9563,VALID,108,VALID,0,
2014-04-05, 01:57:04,VALID,917.658,VALID,0,VALID,95.1555,VALID,0,VALID,19.9563,VALID,109,VALID,0,
2014-04-05, 01:58:04,VALID,917.669,VALID,0,VALID,95.1402,VALID,0,VALID,19.9563,VALID,109,VALID,0,
2014-04-05, 01:59:04,VALID,917.65,VALID,0,VALID,95.125,VALID,0,VALID,19.9773,VALID,108,VALID,0,
2014-04-05, 02:00:04,VALID,917.643,VALID,0,VALID,95.1174,VALID,0,VALID,19.9563,VALID,109,VALID,0,
2014-04-05, 02:01:04,VALID,917.638,VALID,0,VALID,95.0792,VALID,0,VALID,19.9758,VALID,109,VALID,0,
2014-04-05, 02:02:04,VALID,917.606,VALID,0,VALID,95.0716,VALID,0,VALID,19.9563,VALID,108,VALID,0,
2014-04-05, 02:03:04,VALID,917.622,VALID,0,VALID,95.0335,VALID,0,VALID,19.9563,VALID,108,VALID,0,
2014-04-05, 02:04:04,VALID,917.624,VALID,0,VALID,94.9878,VALID,0,VALID,19.9578,VALID,108,VALID,0,
2014-04-05, 02:05:04,VALID,917.588,VALID,0,VALID,95.0106,VALID,0,VALID,19.9368,VALID,108,VALID,0.224219,
2014-04-05, 02:06:04,VALID,917.609,VALID,0,VALID,95.0183,VALID,0,VALID,19.9578,VALID,109,VALID,0.313281,
2014-04-05, 02:07:04,VALID,917.598,VALID,0,VALID,95.0259,VALID,0,VALID,19.9563,VALID,108,VALID,0.266797,
2014-04-05, 02:08:04,VALID,917.607,VALID,0,VALID,95.0335,VALID,0,VALID,19.9563,VALID,109,VALID,0.14375,
2014-04-05, 02:09:04,VALID,917.564,VALID,0,VALID,95.0335,VALID,0,VALID,19.9968,VALID,109,VALID,0.251172,
2014-04-05, 02:10:04,VALID,917.59,VALID,0,VALID,95.0259,VALID,0,VALID,19.9758,VALID,108,VALID,0.192969,
2014-04-05, 02:11:04,VALID,917.598,VALID,0,VALID,95.0335,VALID,0,VALID,19.9758,VALID,109,VALID,0.00195313,
2014-04-05, 02:12:04,VALID,917.579,VALID,0,VALID,95.0259,VALID,0,VALID,19.9953,VALID,108,VALID,0,
2014-04-05, 02:13:04,VALID,917.583,VALID,0,VALID,95.0259,VALID,0,VALID,19.9953,VALID,109,VALID,0,
2014-04-05, 02:14:04,VALID,917.562,VALID,0,VALID,95.003,VALID,0,VALID,19.9953,VALID,109,VALID,0,
2014-04-05, 02:15:04,VALID,917.577,VALID,0,VALID,94.9649,VALID,0,VALID,19.9563,VALID,109,VALID,0,
2014-04-05, 02:16:04,VALID,917.59,VALID,0,VALID,94.9649,VALID,0,VALID,19.9563,VALID,108,VALID,0.252344,
2014-04-05, 02:17:04,VALID,917.581,VALID,0,VALID,94.9573,VALID,0.107441,VALID,19.9563,VALID,109,VALID,0.280078,
2014-04-05, 02:18:04,VALID,917.589,VALID,0,VALID,94.9725,VALID,0,VALID,19.9563,VALID,109,VALID,0.529297,
2014-04-05, 02:19:04,VALID,917.605,VALID,0,VALID,94.9496,VALID,0,VALID,19.9368,VALID,108,VALID,0.475391,
2014-04-05, 02:20:04,VALID,917.597,VALID,0,VALID,94.9573,VALID,0,VALID,19.9383,VALID,108,VALID,0.458594,
2014-04-05, 02:21:04,VALID,917.61,VALID,0,VALID,94.9801,VALID,0,VALID,19.9368,VALID,108,VALID,0.0515625,
2014-04-05, 02:22:04,VALID,917.591,VALID,0,VALID,94.9878,VALID,0,VALID,19.9368,VALID,108,VALID,0.194922,
2014-04-05, 02:23:04,VALID,917.596,VALID,0,VALID,94.9801,VALID,0,VALID,19.9578,VALID,109,VALID,0.220703,
2014-04-05, 02:24:04,VALID,917.575,VALID,0,VALID,95.0183,VALID,0,VALID,19.9773,VALID,108,VALID,0.147656,
2014-04-05, 02:25:04,VALID,917.591,VALID,0,VALID,95.0259,VALID,0,VALID,19.9563,VALID,109,VALID,0.196875,
2014-04-05, 02:26:04,VALID,917.574,VALID,0,VALID,95.0411,VALID,0,VALID,19.9578,VALID,108,VALID,0.258203,
2014-04-05, 02:27:04,VALID,917.547,VALID,0,VALID,95.0335,VALID,0,VALID,19.9773,VALID,108,VALID,0.297656,
2014-04-05, 02:28:04,VALID,917.542,VALID,0,VALID,95.0792,VALID,0,VALID,19.9368,VALID,109,VALID,0.372656,
2014-04-05, 02:29:04,VALID,917.523,VALID,0,VALID,95.0869,VALID,0.107441,VALID,19.9158,VALID,108,VALID,0.464844,
2014-04-05, 02:30:04,VALID,917.49,VALID,0,VALID,95.0716,VALID,0,VALID,19.8978,VALID,109,VALID,0.366797,
2014-04-05, 02:31:04,VALID,917.47,VALID,0,VALID,95.0945,VALID,0,VALID,19.8783,VALID,108,VALID,0.596875,
2014-04-05, 02:32:04,VALID,917.434,VALID,0,VALID,95.1174,VALID,0,VALID,19.8393,VALID,109,VALID,0.5,
2014-04-05, 02:33:04,VALID,917.442,VALID,0,VALID,95.1326,VALID,0,VALID,19.8198,VALID,109,VALID,0.508203,
2014-04-05, 02:34:04,VALID,917.405,VALID,0,VALID,95.1936,VALID,0,VALID,19.8003,VALID,109,VALID,0.583203,
2014-04-05, 02:35:04,VALID,917.376,VALID,0,VALID,95.2546,VALID,0,VALID,19.8003,VALID,108,VALID,0.553906,
2014-04-05, 02:36:04,VALID,917.391,VALID,0,VALID,95.3156,VALID,0,VALID,19.8003,VALID,108,VALID,0.783984,
2014-04-05, 02:37:04,VALID,917.389,VALID,0,VALID,95.3384,VALID,0,VALID,19.8018,VALID,109,VALID,0.575,
2014-04-05, 02:38:04,VALID,917.344,VALID,0,VALID,95.3842,VALID,0,VALID,19.8213,VALID,108,VALID,0.669141,
2014-04-05, 02:39:04,VALID,917.356,VALID,0,VALID,95.4452,VALID,0,VALID,19.8018,VALID,109,VALID,0.467187,
2014-04-05, 02:40:04,VALID,917.36,VALID,0,VALID,95.4604,VALID,0,VALID,19.8018,VALID,108,VALID,0.735547,
2014-04-05, 02:41:04,VALID,917.353,VALID,0,VALID,95.468,VALID,0,VALID,19.7613,VALID,109,VALID,0.798047,
2014-04-05, 02:42:04,VALID,917.328,VALID,0,VALID,95.4604,VALID,0,VALID,19.7613,VALID,109,VALID,0.764453,
2014-04-05, 02:43:04,VALID,917.333,VALID,0,VALID,95.4757,VALID,0,VALID,19.7613,VALID,108,VALID,0.588672,
2014-04-05, 02:44:04,VALID,917.316,VALID,0,VALID,95.4833,VALID,0,VALID,19.7238,VALID,108,VALID,0.635938,
2014-04-05, 02:45:04,VALID,917.32,VALID,0,VALID,95.4833,VALID,0,VALID,19.7238,VALID,108,VALID,0.83125,
2014-04-05, 02:46:04,VALID,917.299,VALID,0,VALID,95.5062,VALID,0,VALID,19.7238,VALID,108,VALID,1.04922,
2014-04-05, 02:47:04,VALID,917.322,VALID,0,VALID,95.5062,VALID,0,VALID,19.7433,VALID,108,VALID,0.536328,
2014-04-05, 02:48:04,VALID,917.31,VALID,0,VALID,95.5138,VALID,0,VALID,19.7028,VALID,108,VALID,0.841797,
2014-04-05, 02:49:04,VALID,917.313,VALID,0,VALID,95.529,VALID,0,VALID,19.7028,VALID,108,VALID,0.528906,
2014-04-05, 02:50:04,VALID,917.325,VALID,0,VALID,95.5595,VALID,0,VALID,19.7028,VALID,108,VALID,0.298047,
2014-04-05, 02:51:04,VALID,917.281,VALID,0,VALID,95.5671,VALID,0,VALID,19.7028,VALID,108,VALID,0.442187,
2014-04-05, 02:52:04,VALID,917.312,VALID,0,VALID,95.5748,VALID,0,VALID,19.7028,VALID,108,VALID,0.649609,
2014-04-05, 02:53:04,VALID,917.302,VALID,0,VALID,95.5976,VALID,0,VALID,19.6833,VALID,108,VALID,0.531641,
2014-04-05, 02:54:04,VALID,917.296,VALID,0,VALID,95.5976,VALID,0,VALID,19.6833,VALID,108,VALID,0.708203,
2014-04-05, 02:55:04,VALID,917.306,VALID,0,VALID,95.6129,VALID,0,VALID,19.6833,VALID,108,VALID,0.290234,
2014-04-05, 02:56:04,VALID,917.264,VALID,0,VALID,95.6129,VALID,0,VALID,19.7043,VALID,108,VALID,0.431641,
2014-04-05, 02:57:04,VALID,917.28,VALID,0,VALID,95.6586,VALID,0,VALID,19.6833,VALID,108,VALID,0.433594,
2014-04-05, 02:58:04,VALID,917.237,VALID,0,VALID,95.6662,VALID,0,VALID,19.7028,VALID,108,VALID,0.442578,
2014-04-05, 02:59:04,VALID,917.229,VALID,0,VALID,95.6586,VALID,0,VALID,19.7028,VALID,108,VALID,0.539844,
2014-04-05, 03:00:04,VALID,917.241,VALID,0,VALID,95.6739,VALID,0,VALID,19.7028,VALID,108,VALID,0.536719,
2014-04-05, 03:01:04,VALID,917.204,VALID,0,VALID,95.6739,VALID,0,VALID,19.7028,VALID,108,VALID,0.145313,
2014-04-05, 03:02:04,VALID,917.184,VALID,0,VALID,95.7044,VALID,0,VALID,19.7223,VALID,108,VALID,0.334375,
2014-04-05, 03:03:04,VALID,917.211,VALID,0,VALID,95.7196,VALID,0,VALID,19.7223,VALID,108,VALID,0.439063,
2014-04-05, 03:04:04,VALID,917.177,VALID,0,VALID,95.7349,VALID,0,VALID,19.7238,VALID,108,VALID,0.205469,
2014-04-05, 03:05:04,VALID,917.18,VALID,0,VALID,95.7272,VALID,0,VALID,19.7433,VALID,108,VALID,0.262109,
2014-04-05, 03:06:04,VALID,917.194,VALID,0,VALID,95.7501,VALID,0,VALID,19.7433,VALID,108,VALID,0.358203,
2014-04-05, 03:07:04,VALID,917.17,VALID,0,VALID,95.7501,VALID,0,VALID,19.7418,VALID,108,VALID,0.399609,
2014-04-05, 03:08:04,VALID,917.192,VALID,0,VALID,95.7577,VALID,0,VALID,19.7223,VALID,108,VALID,0.225391,
2014-04-05, 03:09:04,VALID,917.16,VALID,0,VALID,95.773,VALID,0,VALID,19.7433,VALID,108,VALID,0.351172,
2014-04-05, 03:10:04,VALID,917.184,VALID,0,VALID,95.7882,VALID,0,VALID,19.7418,VALID,108,VALID,0.555859,
2014-04-05, 03:11:04,VALID,917.184,VALID,0,VALID,95.8035,VALID,0,VALID,19.7628,VALID,108,VALID,0.460938,
2014-04-05, 03:12:04,VALID,917.207,VALID,0,VALID,95.8035,VALID,0,VALID,19.7433,VALID,108,VALID,0.494922,
2014-04-05, 03:13:04,VALID,917.196,VALID,0,VALID,95.8035,VALID,0,VALID,19.7628,VALID,108,VALID,0.355078,
2014-04-05, 03:14:04,VALID,917.201,VALID,0,VALID,95.7958,VALID,0,VALID,19.7628,VALID,108,VALID,0.3625,
2014-04-05, 03:15:04,VALID,917.19,VALID,0,VALID,95.8111,VALID,0,VALID,19.7628,VALID,108,VALID,0.393359,
2014-04-05, 03:16:04,VALID,917.217,VALID,0,VALID,95.8263,VALID,0,VALID,19.7433,VALID,108,VALID,0.566016,
2014-04-05, 03:17:04,VALID,917.219,VALID,0,VALID,95.8187,VALID,0,VALID,19.7223,VALID,108,VALID,0.440625,
2014-04-05, 03:18:04,VALID,917.2,VALID,0,VALID,95.8187,VALID,0,VALID,19.7433,VALID,108,VALID,0.303906,
2014-04-05, 03:19:04,VALID,917.193,VALID,0,VALID,95.7958,VALID,0,VALID,19.7433,VALID,108,VALID,0.438672,
2014-04-05, 03:20:04,VALID,917.173,VALID,0,VALID,95.8035,VALID,0,VALID,19.7223,VALID,108,VALID,0.400781,
2014-04-05, 03:21:04,VALID,917.18,VALID,0,VALID,95.7958,VALID,0,VALID,19.7238,VALID,108,VALID,0.599219,
2014-04-05, 03:22:04,VALID,917.161,VALID,0,VALID,95.7958,VALID,0,VALID,19.7433,VALID,108,VALID,0.392969,
2014-04-05, 03:23:04,VALID,917.134,VALID,0,VALID,95.8111,VALID,0,VALID,19.7223,VALID,108,VALID,0.334766,
2014-04-05, 03:24:04,VALID,917.142,VALID,0,VALID,95.8111,VALID,0,VALID,19.7433,VALID,108,VALID,0.419531,
2014-04-05, 03:25:04,VALID,917.097,VALID,0,VALID,95.7882,VALID,0,VALID,19.7238,VALID,108,VALID,0.467969,
2014-04-05, 03:26:04,VALID,917.089,VALID,0,VALID,95.773,VALID,0,VALID,19.7028,VALID,108,VALID,0.666797,
2014-04-05, 03:27:04,VALID,917.095,VALID,0,VALID,95.7806,VALID,0,VALID,19.7028,VALID,108,VALID,0.292578,
2014-04-05, 03:28:04,VALID,917.087,VALID,0,VALID,95.7654,VALID,0,VALID,19.7238,VALID,108,VALID,0.579687,
2014-04-05, 03:29:04,VALID,917.061,VALID,0,VALID,95.7577,VALID,0,VALID,19.7043,VALID,108,VALID,0.504297,
2014-04-05, 03:30:04,VALID,917.064,VALID,0,VALID,95.7425,VALID,0,VALID,19.7238,VALID,108,VALID,0.509766,
2014-04-05, 03:31:04,VALID,917.076,VALID,0,VALID,95.7425,VALID,0,VALID,19.7238,VALID,108,VALID,0.330469,
2014-04-05, 03:32:04,VALID,917.066,VALID,0,VALID,95.7349,VALID,0,VALID,19.7238,VALID,108,VALID,0.176172,
2014-04-05, 03:33:04,VALID,917.071,VALID,0,VALID,95.7196,VALID,0,VALID,19.7433,VALID,108,VALID,0,
2014-04-05, 03:34:04,VALID,917.07,VALID,0,VALID,95.7044,VALID,0,VALID,19.7433,VALID,108,VALID,0.251953,
2014-04-05, 03:35:04,VALID,917.073,VALID,0,VALID,95.6815,VALID,0,VALID,19.7433,VALID,108,VALID,0.195313,
2014-04-05, 03:36:04,VALID,917.09,VALID,0,VALID,95.6586,VALID,0,VALID,19.7628,VALID,108,VALID,0.196875,
2014-04-05, 03:37:04,VALID,917.112,VALID,0,VALID,95.651,VALID,0,VALID,19.7628,VALID,108,VALID,0.00585938,
2014-04-05, 03:38:04,VALID,917.139,VALID,0,VALID,95.6357,VALID,0,VALID,19.7418,VALID,108,VALID,0,
2014-04-05, 03:39:04,VALID,917.127,VALID,0,VALID,95.5976,VALID,0,VALID,19.7418,VALID,108,VALID,0,
2014-04-05, 03:40:04,VALID,917.113,VALID,0,VALID,95.59,VALID,0,VALID,19.7628,VALID,108,VALID,0,
2014-04-05, 03:41:04,VALID,917.097,VALID,0,VALID,95.5671,VALID,0,VALID,19.7418,VALID,108,VALID,0,
2014-04-05, 03:42:04,VALID,917.085,VALID,0,VALID,95.5367,VALID,0,VALID,19.7418,VALID,108,VALID,0.2375,
2014-04-05, 03:43:04,VALID,917.089,VALID,0,VALID,95.529,VALID,0,VALID,19.7823,VALID,108,VALID,0,
2014-04-05, 03:44:04,VALID,917.071,VALID,0,VALID,95.4985,VALID,0,VALID,19.8018,VALID,108,VALID,0,
2014-04-05, 03:45:04,VALID,917.041,VALID,0,VALID,95.4757,VALID,0,VALID,19.8018,VALID,108,VALID,0,
2014-04-05, 03:46:04,VALID,917.073,VALID,0,VALID,95.4604,VALID,0,VALID,19.8018,VALID,108,VALID,0,